When you browse on this site, cookies collect data to enhance your experience and personalize the content and advertising you see.
Visit our Privacy Policy to learn more. By continuing to use the site, you agree to this use of cookies and data.
  • In Switzerland
  • List of Countries
  • For 7 days
  • Water Temperature
  • Satellite Maps
  • Weather Map
  • Weather Widgets
  • user-avatar
    Login

    Hourly Weather Perth

    Today, 25 June, Tuesday

    Time Temperature Precipitation Wind Pressure Humidity
    00:00 +16°C° 0 mm 2 mps 764 mmHg 71%
    01:00 +15°C° 0 mm 2 mps 764 mmHg 74%
    02:00 +15°C° 0 mm 2 mps 764 mmHg 73%
    03:00 +15°C° 0 mm 2 mps 764 mmHg 75%
    04:00 +14°C° 0 mm 2 mps 764 mmHg 77%
    05:00 +14°C° 0 mm 2 mps 764 mmHg 79%
    06:00 +13°C° 0 mm 3 mps 764 mmHg 77%
    07:00 +13°C° 0 mm 3 mps 764 mmHg 76%
    08:00 +14°C° 0 mm 4 mps 764 mmHg 76%
    09:00 +15°C° 0 mm 4 mps 764 mmHg 70%
    10:00 +17°C° 0 mm 4 mps 764 mmHg 65%
    11:00 +19°C° 0 mm 5 mps 764 mmHg 60%
    12:00 +19°C° 0 mm 4 mps 763 mmHg 58%
    13:00 +19°C° 0 mm 4 mps 763 mmHg 57%
    14:00 +20°C° 0 mm 3 mps 762 mmHg 57%
    15:00 +19°C° 0 mm 3 mps 762 mmHg 59%
    16:00 +19°C° 0 mm 3 mps 762 mmHg 61%
    17:00 +18°C° 0 mm 3 mps 761 mmHg 63%
    18:00 +17°C° 0 mm 3 mps 761 mmHg 65%
    19:00 +17°C° 0 mm 2 mps 761 mmHg 67%
    20:00 +16°C° 0 mm 1 mps 761 mmHg 68%
    21:00 +16°C° 0 mm 2 mps 761 mmHg 70%
    22:00 +16°C° 0 mm 2 mps 760 mmHg 71%
    23:00 +15°C° 0 mm 2 mps 760 mmHg 73%

    Tomorrow, 26 June, Wednesday

    Time Temperature Precipitation Wind Pressure Humidity
    00:00 +14°C° 0 mm 3 mps 760 mmHg 73%
    01:00 +14°C° 0 mm 3 mps 759 mmHg 74%
    02:00 +14°C° 0 mm 3 mps 759 mmHg 75%
    03:00 +14°C° 0.1 mm 4 mps 758 mmHg 76%
    04:00 +14°C° 0.1 mm 4 mps 758 mmHg 78%
    05:00 +14°C° 0.1 mm 4 mps 758 mmHg 80%
    06:00 +14°C° 0 mm 4 mps 757 mmHg 82%
    07:00 +14°C° 0 mm 5 mps 757 mmHg 84%
    08:00 +14°C° 0 mm 5 mps 756 mmHg 87%
    09:00 +15°C° 0.3 mm 6 mps 756 mmHg 84%
    10:00 +17°C° 0.3 mm 6 mps 756 mmHg 81%
    11:00 +19°C° 0.3 mm 6 mps 756 mmHg 78%
    12:00 +18°C° 0.5 mm 7 mps 754 mmHg 75%
    13:00 +20°C° 0.5 mm 8 mps 753 mmHg 72%
    14:00 +19°C° 0.5 mm 9 mps 752 mmHg 70%
    15:00 +19°C° 0.6 mm 9 mps 752 mmHg 72%
    16:00 +18°C° 0.6 mm 9 mps 752 mmHg 74%
    17:00 +18°C° 0.6 mm 9 mps 752 mmHg 76%
    18:00 +18°C° 1.4 mm 8 mps 753 mmHg 76%
    19:00 +17°C° 1.4 mm 8 mps 753 mmHg 75%
    20:00 +17°C° 1.4 mm 7 mps 753 mmHg 75%
    21:00 +16°C° 0.2 mm 7 mps 753 mmHg 72%
    22:00 +16°C° 0.2 mm 7 mps 753 mmHg 69%
    23:00 +16°C° 0.2 mm 7 mps 754 mmHg 67%

    Day after tomorrow, 27 June, Thursday

    Time Temperature Precipitation Wind Pressure Humidity
    00:00 +15°C° 0.3 mm 7 mps 754 mmHg 68%
    01:00 +15°C° 0.3 mm 7 mps 754 mmHg 70%
    02:00 +14°C° 0.3 mm 7 mps 754 mmHg 72%
    03:00 +14°C° 0.5 mm 7 mps 754 mmHg 72%
    04:00 +14°C° 0.5 mm 6 mps 754 mmHg 72%
    05:00 +14°C° 0.5 mm 6 mps 755 mmHg 73%
    06:00 +14°C° 0.4 mm 6 mps 755 mmHg 72%
    07:00 +14°C° 0.4 mm 6 mps 755 mmHg 72%
    08:00 +14°C° 0.4 mm 6 mps 755 mmHg 72%
    09:00 +14°C° 0.4 mm 7 mps 755 mmHg 70%
    10:00 +15°C° 0.4 mm 8 mps 756 mmHg 67%
    11:00 +16°C° 0.4 mm 9 mps 756 mmHg 65%
    12:00 +15°C° 0.7 mm 8 mps 756 mmHg 65%
    13:00 +15°C° 0.7 mm 8 mps 756 mmHg 65%
    14:00 +15°C° 0.7 mm 8 mps 756 mmHg 65%
    15:00 +14°C° 0.3 mm 7 mps 756 mmHg 66%
    16:00 +14°C° 0.3 mm 6 mps 757 mmHg 67%
    17:00 +13°C° 0.3 mm 5 mps 758 mmHg 68%
    18:00 +13°C° 0.3 mm 5 mps 758 mmHg 69%
    19:00 +12°C° 0.3 mm 5 mps 759 mmHg 69%
    20:00 +12°C° 0.3 mm 5 mps 760 mmHg 70%
    21:00 +11°C° 0.1 mm 4 mps 760 mmHg 70%
    22:00 +11°C° 0.1 mm 4 mps 761 mmHg 71%
    23:00 +10°C° 0.1 mm 4 mps 762 mmHg 71%

    28 June, Friday

    Time Temperature Precipitation Wind Pressure Humidity
    00:00 +10°C° 0.2 mm 3 mps 762 mmHg 72%
    01:00 +10°C° 0.2 mm 3 mps 763 mmHg 73%
    02:00 +10°C° 0.2 mm 3 mps 763 mmHg 74%
    03:00 +9°C° 0.1 mm 3 mps 764 mmHg 74%
    04:00 +9°C° 0.1 mm 2 mps 764 mmHg 74%
    05:00 +9°C° 0.1 mm 2 mps 765 mmHg 74%
    06:00 +9°C° 0 mm 2 mps 765 mmHg 74%
    07:00 +9°C° 0 mm 2 mps 766 mmHg 73%
    08:00 +9°C° 0 mm 1 mps 766 mmHg 73%
    09:00 +11°C° 0 mm 1 mps 767 mmHg 68%
    10:00 +12°C° 0 mm 1 mps 767 mmHg 63%
    11:00 +14°C° 0 mm 1 mps 768 mmHg 57%
    12:00 +14°C° 0 mm 1 mps 767 mmHg 56%
    13:00 +15°C° 0 mm 2 mps 767 mmHg 54%
    14:00 +15°C° 0 mm 2 mps 767 mmHg 53%
    15:00 +15°C° 0 mm 2 mps 767 mmHg 57%
    16:00 +14°C° 0 mm 2 mps 768 mmHg 62%
    17:00 +14°C° 0 mm 1 mps 768 mmHg 66%
    18:00 +13°C° 0 mm 1 mps 769 mmHg 68%
    19:00 +13°C° 0 mm 1 mps 769 mmHg 70%
    20:00 +12°C° 0 mm 1 mps 769 mmHg 72%
    21:00 +12°C° 0 mm 1 mps 769 mmHg 73%
    22:00 +11°C° 0 mm 1 mps 769 mmHg 74%
    23:00 +11°C° 0 mm 1 mps 770 mmHg 75%

    29 June, Saturday

    Time Temperature Precipitation Wind Pressure Humidity
    00:00 +11°C° 0 mm 1 mps 769 mmHg 76%
    01:00 +9°C° 0 mm 2 mps 769 mmHg 77%
    02:00 +9°C° 0 mm 2 mps 769 mmHg 78%
    03:00 +9°C° 0 mm 2 mps 768 mmHg 78%
    04:00 +9°C° 0 mm 2 mps 768 mmHg 78%
    05:00 +8°C° 0 mm 2 mps 768 mmHg 78%
    06:00 +8°C° 0 mm 2 mps 769 mmHg 76%
    07:00 +8°C° 0 mm 2 mps 769 mmHg 75%
    08:00 +8°C° 0 mm 3 mps 769 mmHg 73%
    09:00 +10°C° 0 mm 3 mps 769 mmHg 67%
    10:00 +11°C° 0 mm 3 mps 769 mmHg 62%
    11:00 +13°C° 0 mm 4 mps 769 mmHg 56%
    12:00 +14°C° 0 mm 4 mps 768 mmHg 54%
    13:00 +14°C° 0 mm 3 mps 767 mmHg 52%
    14:00 +16°C° 0 mm 3 mps 766 mmHg 50%
    15:00 +14°C° 0 mm 3 mps 766 mmHg 52%
    16:00 +13°C° 0 mm 3 mps 766 mmHg 54%
    17:00 +14°C° 0 mm 2 mps 766 mmHg 56%
    18:00 +13°C° 0 mm 2 mps 766 mmHg 57%
    19:00 +12°C° 0 mm 2 mps 766 mmHg 58%
    20:00 +12°C° 0 mm 2 mps 766 mmHg 59%
    21:00 +10°C° 0 mm 2 mps 766 mmHg 60%
    22:00 +10°C° 0 mm 2 mps 766 mmHg 60%
    23:00 +10°C° 0 mm 3 mps 765 mmHg 61%

    30 June, Sunday

    Time Temperature Precipitation Wind Pressure Humidity
    00:00 +10°C° 0 mm 3 mps 765 mmHg 61%
    01:00 +10°C° 0 mm 3 mps 765 mmHg 61%
    02:00 +9°C° 0 mm 3 mps 764 mmHg 61%
    03:00 +9°C° 0 mm 3 mps 764 mmHg 61%
    04:00 +9°C° 0 mm 3 mps 764 mmHg 60%
    05:00 +9°C° 0 mm 3 mps 763 mmHg 60%
    06:00 +9°C° 0 mm 3 mps 763 mmHg 59%
    07:00 +9°C° 0 mm 3 mps 763 mmHg 59%
    08:00 +9°C° 0 mm 3 mps 763 mmHg 58%
    09:00 +11°C° 0 mm 3 mps 763 mmHg 57%
    10:00 +12°C° 0 mm 4 mps 763 mmHg 56%
    11:00 +14°C° 0 mm 4 mps 763 mmHg 54%
    12:00 +14°C° 0 mm 4 mps 762 mmHg 58%
    13:00 +15°C° 0 mm 5 mps 761 mmHg 61%
    14:00 +16°C° 0 mm 5 mps 761 mmHg 64%
    15:00 +17°C° 0.2 mm 4 mps 761 mmHg 68%
    16:00 +17°C° 0.2 mm 4 mps 761 mmHg 71%
    17:00 +16°C° 0.2 mm 3 mps 761 mmHg 75%
    18:00 +16°C° 0.3 mm 3 mps 761 mmHg 77%
    19:00 +16°C° 0.3 mm 3 mps 761 mmHg 80%
    20:00 +16°C° 0.3 mm 3 mps 761 mmHg 82%
    21:00 +14°C° 0.4 mm 3 mps 761 mmHg 84%
    22:00 +14°C° 0.4 mm 3 mps 761 mmHg 86%
    23:00 +14°C° 0.4 mm 4 mps 761 mmHg 88%
    Show more